TimeMST,TemperatureF,Dew PointF,Humidity,Sea Level PressureIn,VisibilityMPH,Wind Direction,Wind SpeedMPH,Gust SpeedMPH,PrecipitationIn,Events,Conditions,WindDirDegrees,DateUTC
12:53 AM,25.0,23.0,92,30.36,5.0,Calm,Calm,-,N/A,,Clear,0,2014-01-22 07:53:00
1:53 AM,25.0,21.9,88,30.33,5.0,Calm,Calm,-,N/A,,Clear,0,2014-01-22 08:53:00
2:53 AM,23.0,19.9,88,30.34,5.0,Calm,Calm,-,N/A,,Clear,0,2014-01-22 09:53:00
3:53 AM,19.0,17.1,92,30.32,5.0,Calm,Calm,-,N/A,,Partly Cloudy,0,2014-01-22 10:53:00
4:53 AM,21.0,17.1,85,30.31,5.0,Calm,Calm,-,N/A,,Partly Cloudy,0,2014-01-22 11:53:00
5:26 AM,16.0,15.1,96,30.24,0.5,NNW,3.5,-,N/A,Fog,Light Freezing Fog,340,2014-01-22 12:26:00
5:38 AM,16.0,14.0,92,30.24,3.0,North,4.6,-,N/A,,Scattered Clouds,350,2014-01-22 12:38:00
5:53 AM,16.0,14.0,92,30.34,5.0,NW,3.5,-,N/A,,Partly Cloudy,320,2014-01-22 12:53:00
6:43 AM,16.0,12.0,84,30.24,0.5,North,4.6,-,N/A,Fog,Light Freezing Fog,350,2014-01-22 13:43:00
6:53 AM,16.0,14.0,92,30.34,0.5,Calm,Calm,-,N/A,Fog,Light Freezing Fog,0,2014-01-22 13:53:00
7:02 AM,16.0,14.0,92,30.24,0.5,Calm,Calm,-,N/A,Fog,Light Freezing Fog,0,2014-01-22 14:02:00
7:22 AM,15.1,12.9,91,30.23,0.2,Calm,Calm,-,N/A,Fog,Light Freezing Fog,0,2014-01-22 14:22:00
7:34 AM,16.0,14.0,92,30.22,1.0,SE,4.6,-,N/A,,Scattered Clouds,130,2014-01-22 14:34:00
7:53 AM,19.0,16.0,88,30.31,2.0,South,3.5,-,N/A,Fog,Partly Cloudy,180,2014-01-22 14:53:00
7:59 AM,19.0,15.1,85,30.21,3.0,South,4.6,-,N/A,Fog,Partly Cloudy,190,2014-01-22 14:59:00
8:53 AM,23.0,21.0,92,30.28,4.0,Calm,Calm,-,N/A,,Partly Cloudy,0,2014-01-22 15:53:00
9:31 AM,19.0,16.0,88,30.21,1.0,NW,9.2,-,N/A,,Partly Cloudy,320,2014-01-22 16:31:00
9:53 AM,21.0,19.0,92,30.31,1.0,NW,4.6,-,N/A,,Partly Cloudy,320,2014-01-22 16:53:00
10:53 AM,24.1,23.0,96,30.29,1.0,NW,3.5,-,N/A,,Mostly Cloudy,310,2014-01-22 17:53:00
10:57 AM,24.1,23.0,96,30.21,0.2,West,3.5,-,N/A,,Scattered Clouds,280,2014-01-22 17:57:00
11:14 AM,25.0,24.1,96,30.21,0.2,West,5.8,-,N/A,,Mostly Cloudy,270,2014-01-22 18:14:00
11:24 AM,25.0,24.1,96,30.20,0.2,West,4.6,-,N/A,,Mostly Cloudy,270,2014-01-22 18:24:00
11:53 AM,27.0,26.1,96,30.26,0.2,Calm,Calm,-,N/A,Fog,Mostly Cloudy,0,2014-01-22 18:53:00
12:05 PM,28.0,26.1,92,30.16,0.2,Calm,Calm,-,N/A,Fog,Scattered Clouds,0,2014-01-22 19:05:00
12:42 PM,30.0,25.0,82,30.13,2.0,Calm,Calm,-,N/A,,Haze,0,2014-01-22 19:42:00
12:53 PM,32.0,25.0,75,30.17,2.0,Calm,Calm,-,N/A,,Haze,0,2014-01-22 19:53:00
1:01 PM,34.0,25.0,70,30.11,3.0,Calm,Calm,-,N/A,,Haze,0,2014-01-22 20:01:00
1:33 PM,33.1,27.0,78,30.09,2.0,North,6.9,-,N/A,,Haze,360,2014-01-22 20:33:00
1:53 PM,32.0,28.0,85,30.14,2.0,NNW,6.9,-,N/A,,Mostly Cloudy,340,2014-01-22 20:53:00
2:53 PM,30.9,27.0,85,30.14,2.0,NW,4.6,-,N/A,,Mostly Cloudy,310,2014-01-22 21:53:00
3:37 PM,30.0,27.0,88,30.10,0.5,NNW,8.1,-,N/A,,Mostly Cloudy,330,2014-01-22 22:37:00
3:40 PM,30.0,27.0,88,30.10,0.5,NW,9.2,-,N/A,,Mostly Cloudy,320,2014-01-22 22:40:00
3:53 PM,28.9,27.0,92,30.18,0.5,NW,8.1,-,N/A,,Mostly Cloudy,310,2014-01-22 22:53:00
3:55 PM,28.9,27.0,92,30.10,2.0,NW,6.9,-,N/A,,Mostly Cloudy,310,2014-01-22 22:55:00
4:11 PM,28.0,27.0,96,30.09,4.0,West,6.9,-,N/A,,Mostly Cloudy,260,2014-01-22 23:11:00
4:53 PM,28.0,26.1,92,30.17,5.0,West,4.6,-,N/A,,Scattered Clouds,260,2014-01-22 23:53:00
5:53 PM,27.0,24.1,89,30.20,4.0,WNW,8.1,-,N/A,,Mostly Cloudy,300,2014-01-23 00:53:00
5:56 PM,27.0,24.1,89,30.11,0.2,NW,6.9,-,N/A,,Mostly Cloudy,320,2014-01-23 00:56:00
6:03 PM,25.0,24.1,96,30.11,0.2,NW,6.9,-,N/A,,Mostly Cloudy,310,2014-01-23 01:03:00
6:21 PM,26.1,25.0,96,30.11,0.2,WNW,9.2,-,N/A,Fog,Fog,290,2014-01-23 01:21:00
6:35 PM,26.1,26.1,100,30.11,0.2,WNW,6.9,-,N/A,Fog,Light Freezing Fog,290,2014-01-23 01:35:00
6:53 PM,26.1,26.1,100,30.22,0.2,WNW,5.8,-,N/A,Fog,Light Freezing Fog,300,2014-01-23 01:53:00
7:53 PM,26.1,26.1,100,30.22,0.2,West,4.6,-,N/A,Fog,Light Freezing Fog,280,2014-01-23 02:53:00
8:53 PM,24.1,24.1,100,30.21,0.2,West,5.8,-,0.00,Fog,Light Freezing Fog,270,2014-01-23 03:53:00
9:53 PM,25.0,25.0,100,30.23,0.2,WNW,4.6,-,N/A,Fog,Light Freezing Fog,300,2014-01-23 04:53:00
10:53 PM,26.1,25.0,96,30.23,0.2,Calm,Calm,-,0.00,Fog-Snow,Light Snow,0,2014-01-23 05:53:00
11:53 PM,26.1,25.0,96,30.24,0.2,Calm,Calm,-,0.00,Fog-Snow,Light Snow,0,2014-01-23 06:53:00